AXM6305 WMKL-WMKK

Flight info

Callsign AXM6305
Flight time 0h 57m
Altitude 31000
Route ISTEL DCT RINBA Y507 KAKAK KAKAK1H
Aircraft A320/M-SDE3FGHIRWY/LB1

Departure

Time 2026-05-07 03:30
Airport Langkawi International Airport (WMKL)

Arrival

Time 2026-05-07 04:28
Airport Kuala Lumpur International Airport (WMKK)
Time Latitude Longitude Altitude Speed Heading
2026-05-07 02:45 6.34070 99.73249 34 ft 0 kts 304°
2026-05-07 03:18 6.34062 99.73260 33 ft 2 kts 304°
2026-05-07 03:19 6.34053 99.73274 31 ft 2 kts 304°
2026-05-07 03:19 6.34041 99.73286 33 ft 2 kts
2026-05-07 03:19 6.34033 99.73286 33 ft 0 kts 29°
2026-05-07 03:23 6.34045 99.73292 33 ft 4 kts 29°
2026-05-07 03:24 6.34081 99.73312 32 ft 8 kts 29°
2026-05-07 03:24 6.34144 99.73347 33 ft 12 kts 28°
2026-05-07 03:24 6.34179 99.73406 34 ft 9 kts 120°
2026-05-07 03:24 6.34170 99.73473 34 ft 11 kts 60°
2026-05-07 03:25 6.34223 99.73520 34 ft 11 kts 34°
2026-05-07 03:25 6.34297 99.73569 34 ft 15 kts 33°
2026-05-07 03:25 6.34395 99.73635 34 ft 19 kts 36°
2026-05-07 03:25 6.34438 99.73747 35 ft 18 kts 108°
2026-05-07 03:26 6.34352 99.73789 36 ft 16 kts 187°
2026-05-07 03:26 6.34301 99.73764 36 ft 1 kts 212°
2026-05-07 03:26 6.34300 99.73764 36 ft 0 kts 212°
2026-05-07 03:29 6.34280 99.73751 35 ft 23 kts 212°
2026-05-07 03:30 6.33930 99.73511 34 ft 94 kts 216°
2026-05-07 03:30 6.33227 99.73029 35 ft 148 kts 214°
2026-05-07 03:30 6.32264 99.72376 204 ft 174 kts 214°
2026-05-07 03:30 6.31282 99.71702 785 ft 171 kts 213°
2026-05-07 03:31 6.30251 99.71103 1266 ft 175 kts 196°
2026-05-07 03:31 6.29034 99.71203 1429 ft 191 kts 148°
2026-05-07 03:31 6.28109 99.72222 1579 ft 209 kts 121°
2026-05-07 03:31 6.27313 99.73547 1774 ft 233 kts 122°
2026-05-07 03:32 6.26425 99.74996 2181 ft 253 kts 122°
2026-05-07 03:32 6.25469 99.76532 2828 ft 262 kts 123°
2026-05-07 03:32 6.24491 99.78093 3596 ft 265 kts 123°
2026-05-07 03:32 6.23510 99.79650 4359 ft 268 kts 123°
2026-05-07 03:33 6.22505 99.81242 5102 ft 271 kts 123°
2026-05-07 03:33 6.21487 99.82850 5850 ft 274 kts 122°
2026-05-07 03:33 6.20455 99.84476 6590 ft 276 kts 122°
2026-05-07 03:33 6.19420 99.86106 7318 ft 277 kts 122°
2026-05-07 03:34 6.18374 99.87751 8038 ft 279 kts 122°
2026-05-07 03:34 6.17341 99.89377 8743 ft 281 kts 122°
2026-05-07 03:34 6.16283 99.91042 9456 ft 283 kts 122°
2026-05-07 03:34 6.15218 99.92717 10107 ft 286 kts 122°
2026-05-07 03:35 6.14108 99.94468 10280 ft 308 kts 122°
2026-05-07 03:35 6.12916 99.96350 10404 ft 329 kts 122°
2026-05-07 03:35 6.11643 99.98354 10522 ft 348 kts 122°
2026-05-07 03:35 6.10197 100.00353 10915 ft 358 kts 131°
2026-05-07 03:36 6.08465 100.02133 11443 ft 362 kts 133°
2026-05-07 03:36 6.06686 100.03945 12003 ft 365 kts 133°
2026-05-07 03:36 6.04891 100.05778 12559 ft 368 kts 133°
2026-05-07 03:36 6.03084 100.07624 13109 ft 372 kts 133°
2026-05-07 03:37 6.01261 100.09486 13647 ft 375 kts 133°
2026-05-07 03:37 5.99450 100.11339 14114 ft 378 kts 133°
2026-05-07 03:37 5.97600 100.13233 14581 ft 381 kts 133°
2026-05-07 03:37 5.95735 100.15142 15046 ft 384 kts 133°
2026-05-07 03:38 5.93849 100.17072 15506 ft 387 kts 133°
2026-05-07 03:38 5.91953 100.19007 15968 ft 390 kts 133°
2026-05-07 03:38 5.90041 100.20957 16412 ft 393 kts 133°
2026-05-07 03:38 5.88138 100.22899 16835 ft 396 kts 133°
2026-05-07 03:39 5.86193 100.24883 17274 ft 399 kts 133°
2026-05-07 03:39 5.84231 100.26885 17709 ft 402 kts 133°
2026-05-07 03:39 5.82258 100.28900 18152 ft 405 kts 133°
2026-05-07 03:39 5.80263 100.30937 18528 ft 408 kts 133°
2026-05-07 03:40 5.78290 100.32952 18889 ft 411 kts 133°
2026-05-07 03:40 5.76277 100.35008 19250 ft 414 kts 133°
2026-05-07 03:40 5.74248 100.37080 19607 ft 416 kts 133°
2026-05-07 03:40 5.72209 100.39167 19958 ft 419 kts 133°
2026-05-07 03:41 5.70150 100.41268 20299 ft 421 kts 133°
2026-05-07 03:41 5.68111 100.43344 20631 ft 424 kts 133°
2026-05-07 03:41 5.66039 100.45452 20954 ft 427 kts 133°
2026-05-07 03:41 5.63930 100.47603 21280 ft 429 kts 133°
2026-05-07 03:42 5.62540 100.49022 21490 ft 431 kts 133°
2026-05-07 03:42 5.60427 100.51177 21801 ft 433 kts 133°
2026-05-07 03:42 5.57614 100.54042 22218 ft 436 kts 133°
2026-05-07 03:42 5.56171 100.55512 22421 ft 437 kts 133°
2026-05-07 03:43 5.54026 100.57698 22719 ft 439 kts 133°
2026-05-07 03:43 5.51903 100.59860 22998 ft 442 kts 133°
2026-05-07 03:43 5.49735 100.62070 23276 ft 444 kts 133°
2026-05-07 03:43 5.47562 100.64287 23530 ft 446 kts 133°
2026-05-07 03:44 5.45380 100.66510 23756 ft 448 kts 133°
2026-05-07 03:44 5.43187 100.68744 23981 ft 449 kts 133°
2026-05-07 03:44 5.41011 100.70951 24203 ft 451 kts 135°
2026-05-07 03:44 5.38571 100.72952 24416 ft 454 kts 145°
2026-05-07 03:45 5.35802 100.74511 24633 ft 457 kts 155°
2026-05-07 03:45 5.32778 100.75574 24848 ft 461 kts 165°
2026-05-07 03:45 5.30052 100.76092 25013 ft 463 kts 170°
2026-05-07 03:45 5.26857 100.76593 25219 ft 465 kts 169°
2026-05-07 03:46 5.23649 100.77098 25412 ft 466 kts 169°
2026-05-07 03:46 5.20466 100.77600 25616 ft 467 kts 169°
2026-05-07 03:46 5.17398 100.78088 25805 ft 469 kts 169°
2026-05-07 03:46 5.14170 100.78603 26001 ft 470 kts 169°
2026-05-07 03:47 5.10927 100.79120 26188 ft 471 kts 169°
2026-05-07 03:47 5.07718 100.79628 26362 ft 473 kts 169°
2026-05-07 03:47 5.04454 100.80143 26546 ft 474 kts 169°
2026-05-07 03:47 5.01180 100.80658 26725 ft 475 kts 169°
2026-05-07 03:48 4.97897 100.81175 26891 ft 477 kts 169°
2026-05-07 03:48 4.94652 100.81686 27050 ft 478 kts 169°
2026-05-07 03:48 4.91359 100.82207 27213 ft 479 kts 169°
2026-05-07 03:48 4.88052 100.82733 27374 ft 480 kts 169°
2026-05-07 03:49 4.84735 100.83261 27530 ft 482 kts 169°
2026-05-07 03:49 4.81409 100.83788 27684 ft 483 kts 169°
2026-05-07 03:49 4.78117 100.84311 27827 ft 484 kts 169°
2026-05-07 03:49 4.74784 100.84839 27989 ft 484 kts 169°
2026-05-07 03:50 4.71451 100.85363 28195 ft 484 kts 169°
2026-05-07 03:50 4.68117 100.85887 28422 ft 483 kts 169°
2026-05-07 03:50 4.64797 100.86410 28643 ft 482 kts 169°
2026-05-07 03:50 4.61517 100.86925 28859 ft 482 kts 169°
2026-05-07 03:51 4.58200 100.87445 29066 ft 482 kts 169°
2026-05-07 03:51 4.54883 100.87967 29271 ft 482 kts 169°
2026-05-07 03:51 4.51564 100.88492 29476 ft 481 kts 169°
2026-05-07 03:51 4.48254 100.89033 29678 ft 480 kts 167°
2026-05-07 03:52 4.45084 100.89917 29898 ft 478 kts 158°
2026-05-07 03:52 4.42043 100.91269 30087 ft 476 kts 152°
2026-05-07 03:52 4.39067 100.92727 30264 ft 475 kts 153°
2026-05-07 03:52 4.36122 100.94167 30437 ft 475 kts 153°
2026-05-07 03:53 4.33136 100.95619 30627 ft 475 kts 153°
2026-05-07 03:53 4.30159 100.97067 30785 ft 474 kts 153°
2026-05-07 03:53 4.27190 100.98510 30860 ft 475 kts 153°
2026-05-07 03:54 4.21236 101.01406 30873 ft 475 kts 153°
2026-05-07 03:54 4.15320 101.04286 30879 ft 475 kts 153°
2026-05-07 03:54 4.12333 101.05742 30711 ft 475 kts 153°
2026-05-07 03:55 4.09351 101.07191 30483 ft 475 kts 153°
2026-05-07 03:55 4.06415 101.08616 30262 ft 476 kts 153°
2026-05-07 03:55 4.03437 101.10062 30030 ft 476 kts 153°
2026-05-07 03:55 4.00441 101.11522 29784 ft 477 kts 153°
2026-05-07 03:56 3.97452 101.12982 29519 ft 477 kts 153°
2026-05-07 03:56 3.94498 101.14424 29260 ft 477 kts 153°
2026-05-07 03:56 3.91506 101.15880 29001 ft 478 kts 153°
2026-05-07 03:56 3.88508 101.17336 28743 ft 478 kts 153°
2026-05-07 03:57 3.85508 101.18796 28490 ft 479 kts 153°
2026-05-07 03:57 3.82509 101.20256 28238 ft 479 kts 153°
2026-05-07 03:57 3.79464 101.21644 27962 ft 480 kts 158°
2026-05-07 03:57 3.76266 101.22629 26941 ft 483 kts 167°
2026-05-07 03:58 3.72966 101.23026 26274 ft 482 kts 177°
2026-05-07 03:58 3.69605 101.23031 26002 ft 483 kts 178°
2026-05-07 03:58 3.66235 101.23059 25594 ft 479 kts 177°
2026-05-07 03:58 3.62947 101.23120 25202 ft 477 kts 177°
2026-05-07 03:59 3.59637 101.23197 24807 ft 474 kts 177°
2026-05-07 03:59 3.56342 101.23271 24411 ft 471 kts 177°
2026-05-07 03:59 3.53068 101.23335 24018 ft 468 kts 177°
2026-05-07 03:59 3.49810 101.23386 23631 ft 466 kts 177°
2026-05-07 04:00 3.46599 101.23430 23200 ft 463 kts 177°
2026-05-07 04:00 3.43384 101.23473 22817 ft 460 kts 177°
2026-05-07 04:00 3.40211 101.23518 22441 ft 458 kts 177°
2026-05-07 04:00 3.37030 101.23565 22059 ft 455 kts 177°
2026-05-07 04:01 3.33909 101.23613 21682 ft 452 kts 177°
2026-05-07 04:01 3.30764 101.23661 21308 ft 450 kts 177°
2026-05-07 04:01 3.27636 101.23708 20931 ft 447 kts 177°
2026-05-07 04:01 3.24562 101.23754 20563 ft 444 kts 177°
2026-05-07 04:02 3.21513 101.23800 20197 ft 442 kts 177°
2026-05-07 04:02 3.18479 101.23847 19835 ft 440 kts 176°
2026-05-07 04:02 3.15425 101.23893 19467 ft 437 kts 176°
2026-05-07 04:02 3.12386 101.23938 19104 ft 435 kts 176°
2026-05-07 04:03 3.09362 101.23982 18745 ft 432 kts 176°
2026-05-07 04:03 3.06389 101.24025 18386 ft 430 kts 176°
2026-05-07 04:03 3.03401 101.24068 18013 ft 426 kts 176°
2026-05-07 04:03 3.00473 101.24109 17859 ft 412 kts 176°
2026-05-07 04:04 2.97647 101.24147 17729 ft 399 kts 176°
2026-05-07 04:04 2.94913 101.24183 17600 ft 386 kts 176°
2026-05-07 04:04 2.92301 101.24218 17464 ft 374 kts 176°
2026-05-07 04:04 2.89735 101.24254 17347 ft 362 kts 176°
2026-05-07 04:05 2.87245 101.24291 17219 ft 351 kts 176°
2026-05-07 04:05 2.84838 101.24328 17093 ft 340 kts 176°
2026-05-07 04:05 2.82547 101.24459 16975 ft 326 kts 166°
2026-05-07 04:05 2.80435 101.25128 16839 ft 311 kts 150°
2026-05-07 04:06 2.78651 101.26294 16569 ft 301 kts 135°
2026-05-07 04:06 2.77201 101.27784 16240 ft 297 kts 130°
2026-05-07 04:06 2.75805 101.29272 15929 ft 295 kts 131°
2026-05-07 04:06 2.74201 101.30541 15677 ft 295 kts 150°
2026-05-07 04:07 2.72257 101.31197 15431 ft 298 kts 170°
2026-05-07 04:07 2.70172 101.31147 15210 ft 302 kts 190°
2026-05-07 04:07 2.68133 101.30590 14985 ft 304 kts 193°
2026-05-07 04:07 2.66092 101.30038 14746 ft 301 kts 187°
2026-05-07 04:08 2.64023 101.29886 14522 ft 296 kts 173°
2026-05-07 04:08 2.61995 101.30031 14312 ft 295 kts 172°
2026-05-07 04:08 2.59948 101.30177 14094 ft 294 kts 173°
2026-05-07 04:08 2.57908 101.30352 13874 ft 291 kts 167°
2026-05-07 04:09 2.55985 101.30914 13662 ft 286 kts 153°
2026-05-07 04:09 2.54170 101.31724 13434 ft 285 kts 153°
2026-05-07 04:09 2.52355 101.32531 13218 ft 284 kts 153°
2026-05-07 04:09 2.50577 101.33334 13020 ft 283 kts 149°
2026-05-07 04:10 2.48982 101.34449 12804 ft 278 kts 134°
2026-05-07 04:10 2.47591 101.35795 12600 ft 278 kts 134°
2026-05-07 04:10 2.46198 101.37136 12397 ft 277 kts 134°
2026-05-07 04:10 2.44811 101.38467 12193 ft 276 kts 133°
2026-05-07 04:11 2.43647 101.39945 11993 ft 272 kts 118°
2026-05-07 04:11 2.42802 101.41639 11793 ft 271 kts 115°
2026-05-07 04:11 2.41978 101.43334 11594 ft 270 kts 115°
2026-05-07 04:11 2.41150 101.45026 11400 ft 270 kts 115°
2026-05-07 04:12 2.40447 101.46760 11198 ft 268 kts 103°
2026-05-07 04:12 2.40177 101.48584 10968 ft 267 kts 96°
2026-05-07 04:12 2.40016 101.50436 10737 ft 266 kts 89°
2026-05-07 04:12 2.40442 101.52220 10505 ft 266 kts 62°
2026-05-07 04:13 2.41661 101.53608 10375 ft 271 kts 35°
2026-05-07 04:13 2.43406 101.54282 10190 ft 276 kts
2026-05-07 04:13 2.45338 101.54232 9976 ft 279 kts 358°
2026-05-07 04:13 2.47281 101.54088 9747 ft 279 kts 357°
2026-05-07 04:14 2.49219 101.53942 9499 ft 278 kts 358°
2026-05-07 04:14 2.51129 101.53801 9283 ft 279 kts 358°
2026-05-07 04:14 2.53067 101.53661 9060 ft 278 kts 358°
2026-05-07 04:14 2.54999 101.53525 8827 ft 277 kts 358°
2026-05-07 04:15 2.56895 101.53392 8609 ft 276 kts 358°
2026-05-07 04:15 2.58814 101.53260 8386 ft 276 kts 359°
2026-05-07 04:15 2.60692 101.53459 8161 ft 269 kts 25°
2026-05-07 04:15 2.62193 101.54507 7949 ft 262 kts 54°
2026-05-07 04:16 2.62962 101.56092 7796 ft 256 kts 82°
2026-05-07 04:16 2.63083 101.57867 7634 ft 256 kts 90°
2026-05-07 04:16 2.63130 101.59652 7469 ft 256 kts 90°
2026-05-07 04:16 2.63172 101.61435 7306 ft 256 kts 90°
2026-05-07 04:17 2.63110 101.63202 7139 ft 252 kts 103°
2026-05-07 04:17 2.62496 101.64810 6983 ft 250 kts 122°
2026-05-07 04:17 2.61339 101.66126 6558 ft 253 kts 143°
2026-05-07 04:17 2.59882 101.67095 6194 ft 251 kts 147°
2026-05-07 04:18 2.58402 101.68070 5652 ft 256 kts 146°
2026-05-07 04:18 2.56928 101.69046 5199 ft 257 kts 146°
2026-05-07 04:18 2.55470 101.70014 5073 ft 243 kts 146°
2026-05-07 04:18 2.54079 101.70937 5005 ft 237 kts 146°
2026-05-07 04:19 2.52700 101.71859 4770 ft 236 kts 145°
2026-05-07 04:19 2.51359 101.72762 4491 ft 234 kts 145°
2026-05-07 04:19 2.50013 101.73669 4213 ft 232 kts 145°
2026-05-07 04:19 2.48673 101.74569 3941 ft 231 kts 145°
2026-05-07 04:20 2.47339 101.75464 3668 ft 230 kts 145°
2026-05-07 04:20 2.46006 101.76355 3398 ft 230 kts 145°
2026-05-07 04:20 2.44681 101.77242 3130 ft 229 kts 145°
2026-05-07 04:21 2.42342 101.79266 2608 ft 223 kts 112°
2026-05-07 04:21 2.42179 101.80791 2497 ft 225 kts 76°
2026-05-07 04:21 2.42946 101.82160 2503 ft 232 kts 51°
2026-05-07 04:21 2.43943 101.83435 2496 ft 232 kts 57°
2026-05-07 04:22 2.44861 101.84736 2496 ft 233 kts 50°
2026-05-07 04:22 2.46258 101.85543 2501 ft 238 kts
2026-05-07 04:22 2.47893 101.85288 2506 ft 243 kts 335°
2026-05-07 04:22 2.49351 101.84463 2494 ft 244 kts 327°
2026-05-07 04:23 2.50753 101.83494 2497 ft 244 kts 325°
2026-05-07 04:23 2.52141 101.82492 2504 ft 245 kts 324°
2026-05-07 04:23 2.53494 101.81522 2490 ft 231 kts 326°
2026-05-07 04:23 2.54776 101.80610 2493 ft 222 kts 324°
2026-05-07 04:24 2.56024 101.79704 2497 ft 221 kts 325°
2026-05-07 04:24 2.57277 101.78844 2500 ft 220 kts 326°
2026-05-07 04:24 2.58547 101.77990 2501 ft 220 kts 326°
2026-05-07 04:24 2.59822 101.77136 2453 ft 221 kts 327°
2026-05-07 04:25 2.61100 101.76280 2223 ft 221 kts 326°
2026-05-07 04:25 2.62335 101.75451 1980 ft 210 kts 327°
2026-05-07 04:25 2.63510 101.74663 1698 ft 194 kts 326°
2026-05-07 04:25 2.64573 101.73951 1465 ft 177 kts 326°
2026-05-07 04:26 2.65559 101.73290 1243 ft 163 kts 326°
2026-05-07 04:26 2.66485 101.72670 1045 ft 162 kts 327°
2026-05-07 04:26 2.67409 101.72050 865 ft 158 kts 327°
2026-05-07 04:26 2.68314 101.71444 666 ft 154 kts 326°
2026-05-07 04:27 2.69200 101.70850 465 ft 152 kts 326°
2026-05-07 04:27 2.70072 101.70263 294 ft 149 kts 327°
2026-05-07 04:27 2.70943 101.69698 109 ft 147 kts 324°
2026-05-07 04:27 2.71789 101.69133 49 ft 147 kts 325°
2026-05-07 04:28 2.72518 101.68643 38 ft 90 kts 326°
2026-05-07 04:28 2.72812 101.68444 39 ft 17 kts 328°
2026-05-07 04:28 2.72886 101.68413 40 ft 10 kts 344°
2026-05-07 04:28 2.72949 101.68399 39 ft 9 kts 348°
2026-05-07 04:29 2.73004 101.68389 39 ft 8 kts 355°
2026-05-07 04:29 2.73054 101.68387 38 ft 7 kts 358°
2026-05-07 04:29 2.73083 101.68385 37 ft 6 kts 358°
2026-05-07 04:29 2.73128 101.68384 38 ft 4 kts 357°
2026-05-07 04:30 2.73152 101.68383 38 ft 3 kts 357°
2026-05-07 04:30 2.73166 101.68379 38 ft 2 kts 343°
2026-05-07 04:30 2.73172 101.68377 38 ft 2 kts 343°
2026-05-07 04:30 2.73207 101.68367 36 ft 9 kts 343°
2026-05-07 04:31 2.73280 101.68327 38 ft 15 kts 327°
2026-05-07 04:31 2.73321 101.68297 38 ft 0 kts 323°
2026-05-07 04:34 2.73324 101.68295 38 ft 3 kts 323°
2026-05-07 04:34 2.73326 101.68294 38 ft 0 kts 323°
2026-05-07 04:38 2.73340 101.68283 38 ft 6 kts 323°
2026-05-07 04:38 2.73394 101.68243 38 ft 13 kts 323°
2026-05-07 04:38 2.73491 101.68178 38 ft 19 kts 339°
2026-05-07 04:38 2.73593 101.68106 38 ft 19 kts 333°
2026-05-07 04:39 2.73688 101.68136 39 ft 14 kts 47°
2026-05-07 04:39 2.73756 101.68230 42 ft 19 kts 54°
2026-05-07 04:39 2.73842 101.68359 42 ft 25 kts 57°
2026-05-07 04:39 2.73950 101.68520 42 ft 31 kts 56°
2026-05-07 04:40 2.74012 101.68611 42 ft 3 kts 56°
2026-05-07 04:40 2.74037 101.68615 42 ft 3 kts 301°
2026-05-07 04:40 2.74051 101.68572 40 ft 9 kts 318°
2026-05-07 04:40 2.74072 101.68556 42 ft 0 kts 323°
2026-05-07 04:41 2.74073 101.68556 42 ft 0 kts 323°
2026-05-07 04:41 2.74078 101.68552 42 ft 0 kts 323°
2026-05-07 04:42 2.74082 101.68549 42 ft 0 kts 323°